Find Starlink 31387

NORAD ID: 59407 Int'l Des: 2024-064 Owner: SPXS Country: US Constellation: starlink operational
LEOCIRCULAR

現在のビュー

3D地球を読み込み中...

About Starlink 31387

Starlink 31387 (NORAD 59407) is a starlink constellation satellite (v2 mini) launched Apr 5, 2024 by SPXS of US. It operates in LEO, CIRCULAR orbit with a mass of 730.00 kg.

Starlink 31387について

説明を読み込み中...

次回通過

Passes for default location (London). Set your location on the main map for personalized predictions.

高度履歴

Loading altitude history...

軌道要素

1 59407U 24064K 26173.50940955 .00000863 00000-0 40874-4 0 9991
2 59407 43.0013 184.4603 0001418 271.2997 88.7692 15.27575497125252
Epoch: Jun 22, 2026 • Age: 20 hours

現在のステータス

高度 486.5 km
速度 7.62 km/s
衛星直下点 -18.09°S, 10.69°W
打ち上げ日 Apr 5, 2024
運用期間 2.2 years
タイプ internet

技術仕様

分類 Payload
質量 730.00 kg
乾燥質量 700.00 kg
総質量 730.00 kg
長さ 0.30 m
直径 4.10 m
スパン 29.00 m
形状 Box + pan
製造者 SPXS
バスタイプ Starlink V2M
フェーズステータス In Orbit
所有者/国 SPXS/US

Most Searched